Flight Track Log - Related Links

Times and Time Zones

All times are in EDT time to prevent confusion due to time zone crossing. See the SWA3383 flight status page for this flight to view local times or setup timezone preferences in your user account.

Time Position Orientation Groundspeed Altitude Reporting Facility
EDT Latitude Longitude Course Direction KTS MPH feet Rate Location/Type
Sat 12:29:24 AM 39.9000 -104.7000 282° West 176 203 6,800  Level Denver TRACON
Sat 12:30:13 AM 39.9111 -104.7692 282° West 215 247 8,100 1,800 Climbing Denver Center
Sat 12:31:14 AM 39.9300 -104.8497 287° West 232 267 10,100 1,574 Climbing Denver Center
Sat 12:32:15 AM 39.9450 -104.9617 280° West 311 358 11,300 2,213 Climbing Denver Center
Sat 12:33:16 AM 39.9503 -105.0886 273° West 347 399 14,600 3,197 Climbing Denver Center
Sat 12:34:17 AM 39.9567 -105.2300 273° West 364 419 17,800 2,852 Climbing Denver Center
Sat 12:35:18 AM 39.9617 -105.3672 273° West 378 435 20,400 2,239 Climbing Denver Center
Sat 12:36:31 AM 39.9667 -105.5064 273° West 385 443 22,800 2,044 Climbing Denver Center
Sat 12:37:33 AM 39.9736 -105.6939 273° West 411 473 25,000 1,561 Climbing Denver Center
Sat 12:38:34 AM 39.9697 -105.8431 268° West 414 476 26,000 493 Climbing Denver Center
Sat 12:39:47 AM 39.9783 -105.9983 274° West 427 491 26,100 985 Climbing Denver Center
Sat 12:40:48 AM 39.9886 -106.1850 274° West 432 497 28,200 1,869 Climbing Denver Center
Sat 12:41:49 AM 39.9983 -106.3464 275° West 446 513 29,900 1,820 Climbing Denver Center
Sat 12:42:50 AM 40.0303 -106.5111 284° West 452 520 31,900 1,967 Climbing Denver Center
Sat 12:43:51 AM 40.0889 -106.6525 298° West 465 535 33,900 1,869 Climbing Denver Center
Sat 12:44:52 AM 40.1542 -106.8161 298° West 456 525 35,700 1,574 Climbing Denver Center
Sat 12:45:53 AM 40.2094 -106.9561 297° West 454 522 37,100 1,525 Climbing Denver Center
Sat 12:46:54 AM 40.2742 -107.1192 298° West 454 522 38,800 1,415 Climbing Denver Center
Sat 12:47:56 AM 40.3292 -107.2572 298° West 451 519 40,000 585 Climbing Denver Center
Sat 12:48:57 AM 40.3831 -107.3956 297° West 449 517 40,000  Level Denver Center
Sat 12:49:58 AM 40.4456 -107.5564 297° West 447 514 40,000  Level Denver Center
Sat 12:50:59 AM 40.4992 -107.6947 297° West 446 513 40,000  Level Denver Center
Sat 12:52:00 AM 40.5531 -107.8314 297° West 444 511 40,000  Level Denver Center
Sat 12:53:13 AM 40.6131 -107.9914 296° West 441 507 40,000  Level Denver Center
Sat 12:54:14 AM 40.6750 -108.1497 297° West 437 503 40,000  Level Denver Center
Sat 12:55:15 AM 40.7358 -108.3108 297° West 437 503 40,000  Level Denver Center
Sat 12:56:16 AM 40.7875 -108.4472 297° West 433 498 40,000  Level Denver Center
Sat 12:57:17 AM 40.8386 -108.5850 296° West 435 501 40,000  Level Denver Center
Sat 12:58:18 AM 40.9003 -108.7475 297° West 439 505 40,000  Level Salt Lake Center
Sat 12:59:19 AM 40.9514 -108.8867 296° West 440 506 40,000  Level Salt Lake Center
Sat 01:00:20 AM 41.0025 -109.0244 296° West 436 502 40,000  Level Salt Lake Center
Sat 01:01:21 AM 41.0617 -109.1864 296° West 434 499 40,000  Level Salt Lake Center
Sat 01:02:22 AM 41.1128 -109.3239 296° West 432 497 40,000  Level Salt Lake Center
Sat 01:03:24 AM 41.1628 -109.4625 296° West 432 497 40,000  Level Salt Lake Center
Sat 01:04:25 AM 41.2211 -109.6239 296° West 432 497 40,000  Level Salt Lake Center
Sat 01:05:26 AM 41.2714 -109.7614 296° West 431 496 40,000  Level Salt Lake Center
Sat 01:06:27 AM 41.3219 -109.9006 296° West 434 499 40,000  Level Salt Lake Center
Sat 01:07:28 AM 41.3797 -110.0619 296° West 432 497 40,000  Level Salt Lake Center
Sat 01:08:29 AM 41.4281 -110.1983 295° West 426 490 40,000  Level Salt Lake Center
Sat 01:09:30 AM 41.4844 -110.3572 295° West 424 488 40,000  Level Salt Lake Center
Sat 01:10:31 AM 41.5328 -110.4942 295° West 426 490 40,000  Level Salt Lake Center
Sat 01:11:33 AM 41.5811 -110.6308 295° West 425 489 40,000  Level Salt Lake Center
Sat 01:12:34 AM 41.6367 -110.7908 295° West 424 488 40,000  Level Salt Lake Center
Sat 01:13:35 AM 41.6864 -110.9272 296° West 426 490 40,000  Level Salt Lake Center
Sat 01:14:36 AM 41.7375 -111.0806 294° West 419 482 40,000  Level Salt Lake Center
Sat 01:15:37 AM 41.7856 -111.2194 295° West 416 479 40,000  Level Salt Lake Center
Sat 01:16:38 AM 41.8328 -111.3589 294° West 414 476 40,000  Level Salt Lake Center
Sat 01:17:39 AM 41.8808 -111.4986 295° West 415 478 40,000  Level Salt Lake Center
Sat 01:18:40 AM 41.9292 -111.6386 295° West 417 480 40,000  Level Salt Lake Center
Sat 01:19:41 AM 41.9764 -111.7822 294° West 422 486 40,000  Level Salt Lake Center
Sat 01:20:42 AM 42.0250 -111.9242 295° West 420 483 40,000  Level Salt Lake Center
Sat 01:21:43 AM 42.0719 -112.0661 294° West 417 480 40,000  Level Salt Lake Center
Sat 01:22:44 AM 42.1183 -112.2083 294° West 417 480 40,000  Level Salt Lake Center
Sat 01:23:45 AM 42.1753 -112.3789 294° West 418 481 40,000  Level Salt Lake Center
Sat 01:24:46 AM 42.2261 -112.5217 296° West 423 487 40,000  Level Salt Lake Center
Sat 01:25:47 AM 42.2803 -112.6606 298° West 422 486 40,000  Level Salt Lake Center
Sat 01:26:48 AM 42.3350 -112.8031 297° West 427 491 40,000  Level Salt Lake Center
Sat 01:27:49 AM 42.3889 -112.9469 297° West 429 494 40,000  Level Salt Lake Center
Sat 01:28:50 AM 42.4439 -113.0897 298° West 430 495 40,000  Level Salt Lake Center
Sat 01:29:50 AM 42.4983 -113.2347 297° West 434 499 40,000  Level Salt Lake Center
Sat 01:30:51 AM 42.5517 -113.3772 297° West 428 493 40,000  Level Salt Lake Center
Sat 01:31:52 AM 42.6056 -113.5208 297° West 429 494 40,000  Level Salt Lake Center
Sat 01:32:53 AM 42.6586 -113.6647 297° West 428 493 40,000  Level Salt Lake Center
Sat 01:33:54 AM 42.7139 -113.8114 297° West 430 495 40,000  Level Salt Lake Center
Sat 01:34:55 AM 42.7633 -113.9592 295° West 429 494 40,000  Level Salt Lake Center
Sat 01:35:56 AM 42.8267 -114.1319 297° West 424 488 40,000 -492 Level Salt Lake Center
Sat 01:36:57 AM 42.8797 -114.2753 297° West 425 489 39,000 -1,820 Descending Salt Lake Center
Sat 01:37:58 AM 42.9311 -114.4103 298° West 425 489 36,300 -3,000 Descending Salt Lake Center
Sat 01:38:59 AM 42.9814 -114.5531 296° West 435 501 32,900 -3,689 Descending Salt Lake Center
Sat 01:40:00 AM 43.0419 -114.7222 296° West 447 514 28,800 -3,246 Descending Salt Lake Center
Sat 01:41:01 AM 43.0944 -114.8667 297° West 443 510 26,300 -2,508 Descending Salt Lake Center
Sat 01:42:02 AM 43.1428 -115.0044 296° West 422 486 23,700 -2,727 Descending Salt Lake Center
Sat 01:43:02 AM 43.1972 -115.1597 296° West 405 466 20,800 -2,975 Descending Salt Lake Center
Sat 01:44:03 AM 43.2436 -115.2928 296° West 389 448 17,700 -3,148 Descending Salt Lake Center
Sat 01:45:04 AM 43.2928 -115.4325 296° West 391 450 14,400 -2,311 Descending Salt Lake Center
Sat 01:46:05 AM 43.3356 -115.5567 295° West 377 434 13,000 -1,131 Descending Salt Lake Center
Sat 01:47:06 AM 43.3742 -115.6689 295° West 309 356 12,100 -1,377 Descending Salt Lake Center
Sat 01:48:07 AM 43.4106 -115.7753 295° West 297 342 10,200 -1,918 Descending Salt Lake Center
Sat 01:49:08 AM 43.4433 -115.8700 296° West 287 330 8,200 -1,934 Descending Salt Lake Center
Sat 01:50:08 AM 43.4772 -115.9683 295° West 273 314 6,300 -1,041 Descending Salt Lake Center
Sat 01:51:09 AM 43.5061 -116.0511 296° West 229 264 6,100 -738 Descending Salt Lake Center
Sat 01:52:10 AM 43.5228 -116.1022 294° West 158 182 4,800 -1,180 Descending Salt Lake Center
Sat 01:53:11 AM 43.5392 -116.1508 295° West 138 159 3,700 -590 Descending Salt Lake Center
Sat 01:54:12 AM 43.5533 -116.1942 294° West 136 157 3,600 -98 Descending Salt Lake Center
Sat 01:56:00 AM 43.5500 -116.2167 270° West  Level FlightAware Approximate
Sat 02:03:00 AM 43.5644 -116.2229 270° West  Level Estimated
Sat 02:04:00 AM 43.5644 -116.2229 270° West  Level Estimated

Login

Don't have an account? Register now (free) for customized features, flight alerts, and more!